Wind_Speed
27 27 27 27 27 26 27 26 26 24 23 22 20 19 18 18 17 17 17 17 16 15 15 15 14 13 13 13 12 12 12 12 13 12 11 11 11 10 10 10 10 9 9 10
29 29 29 29 28 28 29 28 28 27 26 25 24 23 22 20 19 19 19 19 18 17 16 16 16 16 15 15 15 14 14 14 14 14 13 12 13 12 12 12 11 11 11 11
31 31 31 32 30 30 30 30 30 29 28 28 28 27 26 24 23 22 22 22 21 19 18 19 18 18 18 18 17 16 16 15 15 15 15 15 14 14 14 14 13 13 13 13
33 33 34 32 32 33 32 32 32 32 30 30 30 29 28 27 26 25 24 24 23 22 21 21 21 21 21 21 19 18 18 17 17 17 17 17 17 16 16 16 16 15 14 15
35 36 36 34 33 34 34 34 34 34 33 33 32 32 30 29 29 27 27 26 25 24 24 24 24 23 23 22 21 20 19 18 19 19 18 18 18 18 18 18 18 17 17 16
38 38 38 36 35 35 36 36 34 35 35 35 34 33 32 31 31 30 30 28 28 27 26 26 26 25 24 23 23 21 20 20 20 20 19 19 19 19 19 19 19 19 18 17
39 40 40 38 37 36 37 36 35 35 35 35 34 34 33 32 32 32 31 31 30 29 29 28 28 28 26 25 24 23 23 22 21 21 21 21 21 21 21 20 20 20 19 19
39 40 40 38 38 38 38 37 36 35 35 35 35 34 34 34 34 34 33 32 32 31 30 30 30 30 29 28 26 24 24 24 23 23 23 23 23 23 23 22 21 21 21 21
40 40 39 39 39 39 38 38 37 36 36 36 35 35 35 35 35 35 35 34 33 32 32 31 31 31 30 30 28 27 27 26 26 26 25 25 25 25 25 24 23 23 22 22
39 39 38 38 38 38 38 38 38 38 38 37 36 36 36 36 35 36 35 35 34 34 33 32 32 32 31 30 30 29 29 28 28 28 28 27 27 27 26 25 25 24 23 22
39 39 39 39 39 39 39 39 39 38 39 39 38 37 37 37 36 36 36 36 36 35 34 33 33 32 31 31 30 30 30 30 30 30 28 28 28 28 28 28 27 27 26 25
39 39 40 40 39 39 39 39 39 38 39 39 39 38 38 38 37 37 37 36 36 35 34 34 33 33 32 31 31 32 31 30 31 31 31 30 28 28 28 28 27 27 28 27
38 38 39 40 39 38 38 38 39 39 39 38 37 37 37 37 37 36 36 37 36 36 35 35 35 34 34 34 35 34 34 34 33 33 32 31 30 30 29 29 29 28 28 29
38 38 38 39 40 39 38 38 38 39 38 37 37 37 37 37 35 34 35 36 36 36 35 35 35 35 35 36 36 35 35 35 34 33 33 33 32 31 31 30 30 30 30 31
38 38 38 39 39 40 39 39 40 39 39 37 37 38 38 36 34 34 34 34 34 35 35 35 35 35 35 35 35 34 35 34 34 33 32 32 32 32 32 32 33 32 32 33
36 37 37 38 38 39 39 39 39 38 38 38 37 37 35 34 33 33 34 34 33 34 35 35 35 35 35 34 35 35 35 34 34 33 33 33 33 33 33 34 34 34 34 35
36 36 36 36 37 37 37 37 37 36 36 36 35 34 34 34 34 34 34 34 34 34 34 34 34 34 34 35 35 36 36 36 36 35 35 35 35 34 35 34 35 35 35 36
33 34 34 33 33 33 34 34 33 33 33 33 34 34 33 33 33 34 33 34 34 34 34 34 34 34 34 35 36 36 37 36 36 36 35 36 35 34 34 35 36 36 36 37
29 28 29 30 30 29 30 30 30 30 31 31 32 32 33 33 33 33 33 32 33 34 34 34 33 33 34 34 35 35 35 35 36 36 37 37 36 36 36 36 36 37 36 37
24 24 25 25 26 27 27 27 27 27 28 29 30 31 31 31 32 32 32 32 33 33 33 34 33 33 33 34 34 35 35 35 35 36 36 36 37 37 36 36 36 36 35 35
19 19 20 21 21 22 22 23 24 24 25 26 27 28 28 29 30 30 31 31 31 32 32 33 33 33 33 33 33 34 34 34 34 34 34 34 35 35 34 35 35 34 34 34
17 17 17 17 18 19 20 21 21 22 22 23 25 26 27 28 28 28 29 29 30 31 32 33 32 32 32 32 32 32 33 33 33 32 32 32 32 32 32 32 32 33 33 33
16 15 15 15 17 18 19 20 20 20 20 21 22 23 25 26 27 27 28 28 29 28 27 28 29 30 30 30 30 31 31 31 30 30 30 30 30 30 30 30 31 31 31 31
13 13 13 14 15 16 17 17 17 18 19 19 20 21 23 23 23 25 26 25 24 24 25 26 26 27 28 29 29 30 29 29 29 29 29 29 29 29 29 30 31 31 31 32
11 11 11 11 12 13 13 14 14 15 16 16 16 17 17 18 19 20 21 21 22 22 22 23 23 24 25 26 27 27 27 27 27 27 27 28 28 29 29 29 30 31 31 32
9 9 9 9 10 10 11 12 12 14 14 14 14 14 14 16 17 17 18 19 20 20 20 20 20 22 23 23 24 24 25 25 26 26 26 26 27 28 28 29 29 30 31 31
8 8 8 8 9 9 10 10 10 10 11 12 12 13 14 15 15 16 16 16 16 17 18 19 20 21 21 22 22 23 24 25 25 26 26 27 27 27 28 29 29 30 30 30
Wind_Direction
241 243 245 248 249 251 254 258 262 265 268 268 268 270 272 275 276 278 284 287 290 290 286 288 292 295 297 297 296 297 296 288 288 289 283 281 282 284 287 288 291 291 287 287
243 245 248 250 250 251 253 257 261 264 265 267 266 267 268 271 273 275 280 283 285 287 285 286 289 291 292 291 290 290 292 293 289 288 284 282 283 282 283 284 288 288 286 286
247 248 249 250 250 252 255 258 260 262 263 263 263 263 265 267 269 271 275 278 280 282 282 286 286 286 288 289 289 286 287 286 286 287 283 278 279 280 281 280 282 284 285 286
249 249 250 253 253 254 255 258 260 262 263 263 263 262 263 264 264 266 270 274 277 279 279 281 283 284 285 287 288 287 284 284 283 283 282 281 277 276 277 279 279 281 281 284
251 252 254 254 255 255 257 259 261 263 264 264 264 264 263 263 263 265 267 269 271 273 274 276 279 282 282 282 285 286 284 283 283 282 281 281 277 277 277 277 278 280 280 280
252 254 255 257 257 258 260 260 261 264 265 264 264 263 263 263 263 265 266 267 268 269 269 272 275 278 279 278 279 280 280 279 278 280 279 278 277 277 278 279 279 278 278 279
253 256 257 258 258 258 259 262 262 263 263 262 261 262 263 262 262 263 264 265 266 267 267 269 270 272 274 275 274 275 275 275 276 278 278 277 276 277 278 279 279 279 280 281
253 256 258 260 261 261 262 262 262 261 261 261 261 262 262 263 263 264 263 264 264 265 265 266 267 268 270 271 271 271 271 272 274 274 275 275 275 277 277 276 275 277 277 279
255 258 260 261 262 262 262 262 262 261 261 260 260 261 261 262 263 263 263 262 262 262 262 263 265 266 266 267 268 269 270 272 273 274 275 275 275 275 275 272 272 273 275 277
256 258 259 260 262 262 261 261 261 260 260 260 260 261 261 260 261 262 262 261 259 259 260 261 263 265 263 264 265 266 268 269 271 274 276 276 275 275 275 273 272 272 274 275
258 258 259 260 261 262 262 262 261 260 260 260 261 262 260 260 261 261 260 259 258 258 257 257 260 261 260 261 263 264 266 267 269 272 274 274 275 275 274 273 273 273 272 274
258 258 259 259 261 261 262 262 262 261 261 262 262 262 260 260 260 259 258 257 257 257 256 257 258 259 259 261 262 264 266 267 269 271 273 276 274 275 274 276 275 273 272 273
259 260 260 259 259 261 263 263 262 261 261 260 260 261 261 261 261 258 256 255 255 255 256 257 260 259 259 261 263 263 265 268 269 270 271 273 274 274 275 276 276 276 277 276
259 261 261 261 261 261 262 262 261 261 260 259 259 260 260 261 259 257 256 256 255 256 257 259 260 261 262 262 263 265 267 269 270 270 271 271 272 273 274 275 275 275 277 277
259 261 262 262 262 262 263 261 261 261 260 258 258 259 259 259 257 256 256 257 257 257 258 259 259 260 261 263 264 266 268 270 272 272 270 270 271 272 273 273 275 276 275 276
260 262 263 264 264 264 263 263 264 263 260 257 257 258 257 255 256 257 256 258 258 258 259 259 260 260 260 261 263 265 267 269 272 272 272 271 271 271 271 273 275 277 277 276
262 261 263 264 264 265 264 264 265 263 260 258 258 256 254 254 254 255 257 258 258 259 259 259 261 262 262 262 263 265 266 268 271 272 273 273 273 272 273 275 276 276 277 278
263 264 263 263 264 264 264 264 262 260 259 258 256 254 254 256 257 257 258 258 259 260 260 261 261 260 261 263 264 266 267 269 270 271 272 273 274 274 275 274 274 274 276 277
264 265 264 263 264 264 263 262 262 260 257 256 255 254 255 256 257 257 258 259 260 261 262 261 259 259 261 263 265 266 268 270 271 271 271 272 273 275 275 274 274 275 275 276
266 265 265 264 264 264 264 263 261 260 258 256 256 256 256 257 259 260 259 260 262 263 262 261 259 260 263 265 268 268 268 270 271 271 271 272 272 272 272 272 273 274 275 275
266 262 264 266 265 264 264 263 262 262 261 258 257 257 258 259 260 262 262 261 263 264 262 262 261 261 263 266 268 268 270 271 271 272 273 273 274 273 272 273 274 275 275 275
268 267 267 268 267 267 267 266 265 265 264 260 259 258 261 262 264 266 266 265 265 264 263 262 261 262 264 267 267 269 270 272 274 274 274 274 274 274 273 274 275 275 275 276
269 269 270 269 270 271 272 269 266 265 265 265 265 266 267 267 267 267 266 267 266 265 264 263 263 264 265 267 268 270 272 273 274 274 274 274 274 274 274 273 274 276 277 277
267 268 270 272 274 275 275 271 266 266 269 270 271 272 272 271 269 267 266 265 266 267 267 267 267 266 268 270 271 271 272 273 274 274 274 274 274 275 275 274 274 275 277 278
266 268 272 275 278 280 279 275 272 273 274 274 275 274 274 273 273 271 269 267 268 268 267 268 268 268 269 271 271 271 272 273 274 274 273 273 273 274 275 275 275 275 277 279
271 276 284 285 284 284 284 281 280 281 281 280 278 278 278 277 276 274 272 269 267 267 269 271 271 273 273 274 273 272 273 273 272 272 273 273 273 274 275 276 276 277 278 278
273 276 283 288 292 294 292 287 286 288 289 286 282 279 277 276 276 277 278 278 274 272 274 275 276 277 278 277 276 275 274 274 274 275 275 275 275 276 276 277 279 279 279 279
Height
5871 5873 5875 5876 5878 5879 5881 5882 5884 5886 5887 5889 5890 5890 5891 5891 5891 5891 5891 5890 5889 5888 5887 5886 5885 5885 5883 5882 5881 5880 5879 5877 5877 5876 5875 5875 5874 5873 5872 5871 5871 5870 5869 5869
5864 5866 5868 5870 5872 5873 5875 5876 5878 5879 5881 5883 5884 5885 5886 5886 5886 5886 5886 5886 5885 5884 5883 5883 5882 5881 5880 5879 5878 5877 5876 5874 5873 5873 5872 5871 5871 5870 5869 5869 5868 5867 5867 5866
5857 5859 5861 5863 5866 5867 5868 5870 5871 5872 5875 5876 5877 5878 5879 5880 5881 5881 5881 5880 5880 5879 5879 5878 5877 5877 5876 5875 5874 5873 5872 5871 5870 5869 5868 5867 5867 5867 5866 5865 5865 5864 5863 5862
5848 5851 5853 5858 5858 5860 5861 5863 5864 5865 5867 5868 5870 5871 5872 5873 5874 5874 5875 5874 5874 5874 5873 5873 5872 5872 5871 5870 5869 5868 5868 5867 5866 5865 5864 5864 5863 5863 5862 5862 5861 5860 5859 5858
5840 5841 5844 5848 5850 5851 5853 5855 5856 5857 5858 5860 5861 5862 5864 5865 5866 5867 5867 5868 5868 5868 5868 5867 5866 5866 5865 5865 5864 5863 5862 5862 5861 5860 5859 5858 5858 5858 5857 5857 5856 5855 5854 5854
5831 5832 5835 5840 5842 5843 5845 5846 5848 5848 5849 5851 5852 5853 5856 5857 5858 5858 5859 5859 5860 5860 5860 5860 5860 5859 5859 5858 5858 5857 5856 5856 5855 5855 5854 5854 5853 5853 5852 5852 5851 5850 5849 5849
5821 5823 5825 5829 5831 5834 5836 5838 5839 5839 5840 5841 5843 5844 5846 5847 5848 5849 5850 5851 5851 5852 5852 5852 5852 5852 5852 5851 5851 5850 5850 5849 5849 5848 5848 5847 5847 5847 5846 5846 5845 5844 5844 5843
5812 5814 5818 5820 5821 5823 5825 5827 5828 5829 5831 5832 5833 5835 5836 5838 5839 5839 5840 5841 5842 5843 5843 5843 5843 5843 5843 5843 5843 5843 5843 5842 5842 5841 5841 5841 5840 5840 5840 5839 5838 5838 5838 5837
5804 5807 5808 5809 5811 5812 5814 5816 5817 5819 5820 5822 5824 5825 5826 5827 5829 5829 5831 5832 5832 5833 5834 5835 5834 5834 5834 5835 5835 5835 5835 5835 5834 5833 5833 5833 5833 5833 5832 5832 5831 5831 5831 5830
5793 5796 5798 5799 5800 5801 5803 5805 5806 5808 5810 5812 5813 5814 5816 5817 5818 5819 5820 5821 5822 5823 5824 5825 5825 5825 5825 5826 5826 5827 5827 5827 5826 5826 5825 5825 5825 5825 5825 5824 5824 5824 5823 5823
5782 5785 5787 5789 5790 5791 5792 5794 5795 5797 5799 5801 5802 5803 5805 5806 5806 5808 5809 5810 5811 5813 5814 5815 5816 5816 5816 5817 5817 5818 5818 5818 5818 5818 5816 5816 5817 5817 5816 5816 5815 5816 5816 5815
5772 5775 5776 5779 5780 5781 5782 5783 5784 5786 5788 5789 5790 5792 5793 5794 5795 5797 5798 5800 5801 5802 5804 5805 5806 5807 5807 5808 5808 5809 5809 5809 5809 5809 5809 5808 5808 5808 5807 5806 5806 5806 5806 5806
5762 5763 5765 5767 5768 5769 5770 5772 5773 5775 5776 5778 5779 5781 5782 5783 5784 5785 5787 5789 5791 5793 5794 5795 5796 5797 5798 5798 5799 5800 5800 5800 5800 5800 5801 5800 5800 5799 5799 5799 5798 5797 5797 5797
5751 5752 5754 5756 5757 5758 5759 5760 5761 5763 5765 5766 5768 5769 5771 5772 5773 5775 5777 5779 5781 5783 5784 5785 5786 5787 5787 5788 5789 5789 5790 5790 5790 5790 5791 5791 5790 5790 5790 5790 5790 5789 5788 5788
5741 5742 5743 5744 5745 5746 5747 5748 5750 5752 5753 5754 5756 5758 5759 5761 5763 5765 5767 5769 5770 5772 5774 5775 5776 5777 5777 5778 5779 5779 5780 5780 5780 5780 5780 5781 5780 5780 5780 5780 5780 5779 5779 5778
5730 5731 5732 5733 5734 5735 5736 5737 5738 5740 5741 5743 5744 5746 5747 5750 5753 5755 5757 5758 5760 5762 5764 5765 5766 5766 5767 5768 5769 5769 5770 5770 5770 5770 5770 5770 5770 5770 5770 5769 5769 5769 5769 5768
5719 5720 5720 5721 5722 5723 5724 5725 5727 5728 5730 5731 5733 5735 5737 5740 5742 5744 5746 5748 5750 5751 5753 5754 5755 5756 5757 5758 5759 5759 5759 5760 5760 5760 5760 5759 5759 5759 5759 5759 5758 5758 5758 5757
5708 5709 5709 5710 5711 5712 5713 5714 5715 5717 5718 5720 5723 5725 5727 5729 5732 5734 5736 5738 5739 5741 5742 5743 5744 5745 5746 5747 5748 5748 5749 5749 5749 5749 5749 5749 5749 5748 5748 5748 5747 5747 5747 5746
5698 5699 5700 5701 5702 5702 5704 5705 5705 5707 5708 5710 5713 5716 5718 5720 5722 5724 5726 5727 5729 5730 5732 5733 5733 5734 5735 5736 5737 5738 5738 5738 5738 5738 5738 5738 5738 5738 5737 5737 5736 5736 5735 5735
5692 5692 5693 5694 5694 5694 5695 5696 5696 5698 5699 5701 5704 5707 5709 5711 5712 5713 5715 5717 5718 5720 5721 5722 5723 5724 5725 5725 5726 5727 5727 5727 5727 5727 5727 5727 5726 5726 5726 5725 5725 5724 5724 5723
5688 5688 5688 5688 5688 5688 5688 5688 5689 5690 5691 5693 5696 5698 5700 5702 5703 5704 5705 5707 5709 5709 5710 5711 5712 5713 5714 5715 5715 5715 5715 5716 5715 5715 5715 5715 5715 5714 5714 5714 5713 5713 5713 5713
5684 5684 5684 5684 5683 5683 5683 5683 5683 5684 5685 5686 5688 5690 5692 5693 5694 5695 5696 5698 5699 5699 5699 5700 5702 5703 5704 5704 5704 5704 5705 5704 5704 5704 5704 5703 5703 5703 5703 5703 5703 5702 5702 5702
5681 5680 5680 5680 5680 5680 5679 5679 5679 5679 5680 5681 5682 5683 5684 5685 5685 5686 5688 5689 5689 5689 5690 5691 5692 5693 5693 5693 5693 5694 5694 5694 5694 5693 5693 5693 5692 5692 5693 5693 5693 5692 5692 5692
5678 5678 5678 5678 5677 5677 5676 5675 5675 5675 5675 5675 5676 5676 5677 5677 5678 5678 5679 5680 5681 5681 5682 5682 5682 5683 5683 5684 5684 5684 5684 5684 5684 5684 5683 5683 5683 5683 5683 5683 5683 5683 5682 5682
5676 5676 5675 5675 5674 5674 5673 5672 5672 5672 5671 5671 5671 5671 5671 5671 5671 5672 5672 5673 5674 5674 5674 5674 5674 5674 5674 5674 5674 5674 5674 5674 5674 5674 5674 5674 5673 5673 5673 5673 5673 5673 5672 5672
5673 5673 5673 5672 5672 5671 5671 5670 5669 5669 5668 5668 5667 5667 5666 5666 5666 5666 5666 5667 5667 5667 5668 5667 5667 5667 5667 5667 5666 5666 5666 5665 5665 5665 5665 5665 5665 5664 5664 5664 5664 5663 5662 5662
5671 5671 5671 5670 5669 5669 5668 5668 5667 5666 5666 5665 5664 5664 5663 5663 5662 5662 5663 5662 5662 5662 5662 5661 5661 5661 5661 5660 5659 5658 5657 5657 5657 5656 5657 5656 5656 5655 5655 5654 5654 5653 5652 5652